Year,Month,Day,Hour,Minute,Value (Times are PST for temperature in C)
2013,04,25,00,00,12.50
2013,04,25,00,01,12.50
2013,04,25,00,02,12.60
2013,04,25,00,03,12.60
2013,04,25,00,04,12.70
2013,04,25,00,05,12.70
2013,04,25,00,06,12.70
2013,04,25,00,07,12.70
2013,04,25,00,08,12.70
2013,04,25,00,09,12.70
2013,04,25,00,10,12.70
2013,04,25,00,11,12.80
2013,04,25,00,12,12.80
2013,04,25,00,13,12.80
2013,04,25,00,14,12.80
2013,04,25,00,15,12.80
2013,04,25,00,16,12.80
2013,04,25,00,17,12.80
2013,04,25,00,18,12.70
2013,04,25,00,19,12.70
2013,04,25,00,20,12.70
2013,04,25,00,21,12.70
2013,04,25,00,22,12.70
2013,04,25,00,23,12.60
2013,04,25,00,24,12.60
2013,04,25,00,25,12.50
2013,04,25,00,26,12.50
2013,04,25,00,27,12.40
2013,04,25,00,28,12.40
2013,04,25,00,29,12.40
2013,04,25,00,30,12.40
2013,04,25,00,31,12.40
2013,04,25,00,32,12.40
2013,04,25,00,33,12.50
2013,04,25,00,34,12.50
2013,04,25,00,35,12.40
2013,04,25,00,36,12.40
2013,04,25,00,37,12.40
2013,04,25,00,38,12.40
2013,04,25,00,39,12.40
2013,04,25,00,40,12.40
2013,04,25,00,41,12.40
2013,04,25,00,42,12.40
2013,04,25,00,43,12.30
2013,04,25,00,44,12.30
2013,04,25,00,45,12.30
2013,04,25,00,46,12.30
2013,04,25,00,47,12.20
2013,04,25,00,48,12.20
2013,04,25,00,49,12.20
2013,04,25,00,50,12.20
2013,04,25,00,51,12.20
2013,04,25,00,52,12.20
2013,04,25,00,53,12.20
2013,04,25,00,54,12.10
2013,04,25,00,55,12.10
2013,04,25,00,56,12.10
2013,04,25,00,57,12.10
2013,04,25,00,58,12.10
2013,04,25,00,59,12.10
2013,04,25,01,00,12.00
2013,04,25,01,01,12.00
2013,04,25,01,02,12.00
2013,04,25,01,03,11.90
2013,04,25,01,04,11.90
2013,04,25,01,05,11.90
2013,04,25,01,06,11.90
2013,04,25,01,07,11.80
2013,04,25,01,08,11.80
2013,04,25,01,09,11.80
2013,04,25,01,10,11.80
2013,04,25,01,11,11.80
2013,04,25,01,12,11.80
2013,04,25,01,13,11.80
2013,04,25,01,14,11.90
2013,04,25,01,15,11.90
2013,04,25,01,16,12.00
2013,04,25,01,17,12.00
2013,04,25,01,18,12.10
2013,04,25,01,19,12.10
2013,04,25,01,20,12.10
2013,04,25,01,21,12.20
2013,04,25,01,22,12.20
2013,04,25,01,23,12.20
2013,04,25,01,24,12.20
2013,04,25,01,25,12.10
2013,04,25,01,26,12.10
2013,04,25,01,27,12.10
2013,04,25,01,28,12.00
2013,04,25,01,29,12.00
2013,04,25,01,30,11.90
2013,04,25,01,31,11.90
2013,04,25,01,32,11.90
2013,04,25,01,33,11.90
2013,04,25,01,34,11.90
2013,04,25,01,35,11.90
2013,04,25,01,36,11.90
2013,04,25,01,37,11.90
2013,04,25,01,38,11.90
2013,04,25,01,39,12.00
2013,04,25,01,40,12.00
2013,04,25,01,41,12.00
2013,04,25,01,42,12.00
2013,04,25,01,43,12.00
2013,04,25,01,44,12.10
2013,04,25,01,45,12.10
2013,04,25,01,46,12.10
2013,04,25,01,47,12.10
2013,04,25,01,48,12.10
2013,04,25,01,49,12.10
2013,04,25,01,50,12.10
2013,04,25,01,51,12.10
2013,04,25,01,52,12.10
2013,04,25,01,53,12.00
2013,04,25,01,54,12.00
2013,04,25,01,55,11.90
2013,04,25,01,56,11.90
2013,04,25,01,57,11.80
2013,04,25,01,58,11.80
2013,04,25,01,59,11.80
2013,04,25,02,00,11.80
2013,04,25,02,01,11.70
2013,04,25,02,02,11.70
2013,04,25,02,03,11.70
2013,04,25,02,04,11.70
2013,04,25,02,05,11.60
2013,04,25,02,06,11.60
2013,04,25,02,07,11.60
2013,04,25,02,08,11.60
2013,04,25,02,09,11.60
2013,04,25,02,10,11.60
2013,04,25,02,11,11.60
2013,04,25,02,12,11.70
2013,04,25,02,13,11.70
2013,04,25,02,14,11.70
2013,04,25,02,15,11.80
2013,04,25,02,16,11.80
2013,04,25,02,17,11.80
2013,04,25,02,18,11.80
2013,04,25,02,19,11.80
2013,04,25,02,20,11.80
2013,04,25,02,21,11.70
2013,04,25,02,22,11.70
2013,04,25,02,23,11.70
2013,04,25,02,24,11.70
2013,04,25,02,25,11.70
2013,04,25,02,26,11.70
2013,04,25,02,27,11.70
2013,04,25,02,28,11.70
2013,04,25,02,29,11.70
2013,04,25,02,30,11.70
2013,04,25,02,31,11.70
2013,04,25,02,32,11.70
2013,04,25,02,33,11.70
2013,04,25,02,34,11.70
2013,04,25,02,35,11.70
2013,04,25,02,36,11.70
2013,04,25,02,37,11.70
2013,04,25,02,38,11.60
2013,04,25,02,39,11.60
2013,04,25,02,40,11.60
2013,04,25,02,41,11.60
2013,04,25,02,42,11.60
2013,04,25,02,43,11.60
2013,04,25,02,44,11.60
2013,04,25,02,45,11.50
2013,04,25,02,46,11.50
2013,04,25,02,47,11.50
2013,04,25,02,48,11.50
2013,04,25,02,49,11.50
2013,04,25,02,50,11.40
2013,04,25,02,51,11.40
2013,04,25,02,52,11.30
2013,04,25,02,53,11.20
2013,04,25,02,54,11.20
2013,04,25,02,55,11.20
2013,04,25,02,56,11.20
2013,04,25,02,57,11.20
2013,04,25,02,58,11.10
2013,04,25,02,59,11.10
2013,04,25,03,00,11.10
2013,04,25,03,01,11.10
2013,04,25,03,02,11.00
2013,04,25,03,03,10.90
2013,04,25,03,04,10.90
2013,04,25,03,05,10.90
2013,04,25,03,06,10.80
2013,04,25,03,07,10.80
2013,04,25,03,08,10.80
2013,04,25,03,09,10.90
2013,04,25,03,10,10.90
2013,04,25,03,11,11.00
2013,04,25,03,12,11.00
2013,04,25,03,13,11.10
2013,04,25,03,14,11.10
2013,04,25,03,15,11.10
2013,04,25,03,16,11.10
2013,04,25,03,17,11.20
2013,04,25,03,18,11.20
2013,04,25,03,19,11.10
2013,04,25,03,20,11.10
2013,04,25,03,21,11.10
2013,04,25,03,22,11.00
2013,04,25,03,23,11.00
2013,04,25,03,24,11.00
2013,04,25,03,25,11.00
2013,04,25,03,26,10.90
2013,04,25,03,27,10.90
2013,04,25,03,28,10.80
2013,04,25,03,29,10.80
2013,04,25,03,30,10.80
2013,04,25,03,31,10.90
2013,04,25,03,32,10.90
2013,04,25,03,33,10.90
2013,04,25,03,34,10.90
2013,04,25,03,35,10.90
2013,04,25,03,36,11.00
2013,04,25,03,37,11.00
2013,04,25,03,38,11.00
2013,04,25,03,39,11.00
2013,04,25,03,40,11.00
2013,04,25,03,41,10.90
2013,04,25,03,42,10.90
2013,04,25,03,43,10.90
2013,04,25,03,44,10.80
2013,04,25,03,45,10.80
2013,04,25,03,46,10.70
2013,04,25,03,47,10.60
2013,04,25,03,48,10.50
2013,04,25,03,49,10.40
2013,04,25,03,50,10.30
2013,04,25,03,51,10.20
2013,04,25,03,52,10.10
2013,04,25,03,53,10.00
2013,04,25,03,54,9.90
2013,04,25,03,55,9.80
2013,04,25,03,56,9.80
2013,04,25,03,57,9.70
2013,04,25,03,58,9.70
2013,04,25,03,59,9.70
2013,04,25,04,00,9.60
2013,04,25,04,01,9.50
2013,04,25,04,02,9.50
2013,04,25,04,03,9.40
2013,04,25,04,04,9.40
2013,04,25,04,05,9.30
2013,04,25,04,06,9.30
2013,04,25,04,07,9.20
2013,04,25,04,08,9.20
2013,04,25,04,09,9.10
2013,04,25,04,10,9.10
2013,04,25,04,11,9.10
2013,04,25,04,12,9.10
2013,04,25,04,13,9.10
2013,04,25,04,14,9.10
2013,04,25,04,15,9.00
2013,04,25,04,16,9.00
2013,04,25,04,17,9.00
2013,04,25,04,18,8.90
2013,04,25,04,19,8.90
2013,04,25,04,20,8.80
2013,04,25,04,21,8.80
2013,04,25,04,22,8.70
2013,04,25,04,23,8.70
2013,04,25,04,24,8.60
2013,04,25,04,25,8.60
2013,04,25,04,26,8.50
2013,04,25,04,27,8.50
2013,04,25,04,28,8.40
2013,04,25,04,29,8.40
2013,04,25,04,30,8.40
2013,04,25,04,31,8.30
2013,04,25,04,32,8.30
2013,04,25,04,33,8.30
2013,04,25,04,34,8.20
2013,04,25,04,35,8.20
2013,04,25,04,36,8.20
2013,04,25,04,37,8.10
2013,04,25,04,38,8.10
2013,04,25,04,39,8.10
2013,04,25,04,40,8.10
2013,04,25,04,41,8.10
2013,04,25,04,42,8.10
2013,04,25,04,43,8.10
2013,04,25,04,44,8.00
2013,04,25,04,45,8.00
2013,04,25,04,46,8.00
2013,04,25,04,47,8.00
2013,04,25,04,48,8.00
2013,04,25,04,49,8.00
2013,04,25,04,50,8.10
2013,04,25,04,51,8.10
2013,04,25,04,52,8.10
2013,04,25,04,53,8.20
2013,04,25,04,54,8.20
2013,04,25,04,55,8.10
2013,04,25,04,56,8.10
2013,04,25,04,57,8.10
2013,04,25,04,58,8.10
2013,04,25,04,59,8.10
2013,04,25,05,00,8.00
2013,04,25,05,01,8.00
2013,04,25,05,02,8.00
2013,04,25,05,03,7.90
2013,04,25,05,04,7.90
2013,04,25,05,05,7.90
2013,04,25,05,06,7.90
2013,04,25,05,07,7.90
2013,04,25,05,08,7.90
2013,04,25,05,09,7.90
2013,04,25,05,10,7.90
2013,04,25,05,11,7.80
2013,04,25,05,12,7.80
2013,04,25,05,13,7.80
2013,04,25,05,14,7.80
2013,04,25,05,15,7.80
2013,04,25,05,16,7.80
2013,04,25,05,17,7.80
2013,04,25,05,18,7.80
2013,04,25,05,19,7.70
2013,04,25,05,20,7.70
2013,04,25,05,21,7.70
2013,04,25,05,22,7.60
2013,04,25,05,23,7.60
2013,04,25,05,24,7.60
2013,04,25,05,25,7.50
2013,04,25,05,26,7.50
2013,04,25,05,27,7.40
2013,04,25,05,28,7.40
2013,04,25,05,29,7.40
2013,04,25,05,30,7.40
2013,04,25,05,31,7.40
2013,04,25,05,32,7.40
2013,04,25,05,33,7.30
2013,04,25,05,34,7.30
2013,04,25,05,35,7.30
2013,04,25,05,36,7.30
2013,04,25,05,37,7.20
2013,04,25,05,38,7.20
2013,04,25,05,39,7.20
2013,04,25,05,40,7.10
2013,04,25,05,41,7.10
2013,04,25,05,42,7.10
2013,04,25,05,43,7.10
2013,04,25,05,44,7.00
2013,04,25,05,45,7.00
2013,04,25,05,46,6.90
2013,04,25,05,47,6.90
2013,04,25,05,48,6.90
2013,04,25,05,49,6.90
2013,04,25,05,50,6.90
2013,04,25,05,51,6.80
2013,04,25,05,52,6.80
2013,04,25,05,53,6.80
2013,04,25,05,54,6.80
2013,04,25,05,55,6.80
2013,04,25,05,56,6.70
2013,04,25,05,57,6.70
2013,04,25,05,58,6.70
2013,04,25,05,59,6.70
2013,04,25,06,00,6.70
2013,04,25,06,01,6.70
2013,04,25,06,02,6.70
2013,04,25,06,03,6.70
2013,04,25,06,04,6.70
2013,04,25,06,05,6.60
2013,04,25,06,06,6.60
2013,04,25,06,07,6.60
2013,04,25,06,08,6.60
2013,04,25,06,09,6.60
2013,04,25,06,10,6.60
2013,04,25,06,11,6.60
2013,04,25,06,12,6.60
2013,04,25,06,13,6.60
2013,04,25,06,14,6.60
2013,04,25,06,15,6.60
2013,04,25,06,16,6.60
2013,04,25,06,17,6.60
2013,04,25,06,18,6.60
2013,04,25,06,19,6.60
2013,04,25,06,20,6.60
2013,04,25,06,21,6.60
2013,04,25,06,22,6.50
2013,04,25,06,23,6.50
2013,04,25,06,24,6.50
2013,04,25,06,25,6.40
2013,04,25,06,26,6.40
2013,04,25,06,27,6.40
2013,04,25,06,28,6.40
2013,04,25,06,29,6.40
2013,04,25,06,30,6.40
2013,04,25,06,31,6.40
2013,04,25,06,32,6.40
2013,04,25,06,33,6.50
2013,04,25,06,34,6.50
2013,04,25,06,35,6.60
2013,04,25,06,36,6.60
2013,04,25,06,37,6.70
2013,04,25,06,38,6.70
2013,04,25,06,39,6.70
2013,04,25,06,40,6.70
2013,04,25,06,41,6.70
2013,04,25,06,42,6.70
2013,04,25,06,43,6.70
2013,04,25,06,44,6.70
2013,04,25,06,45,6.70
2013,04,25,06,46,6.70
2013,04,25,06,47,6.70
2013,04,25,06,48,6.70
2013,04,25,06,49,6.70
2013,04,25,06,50,6.70
2013,04,25,06,51,6.70
2013,04,25,06,52,6.70
2013,04,25,06,53,6.70
2013,04,25,06,54,6.70
2013,04,25,06,55,6.60
2013,04,25,06,56,6.60
2013,04,25,06,57,6.60
2013,04,25,06,58,6.60
2013,04,25,06,59,6.60
2013,04,25,07,00,6.60
2013,04,25,07,01,6.60
2013,04,25,07,02,6.60
2013,04,25,07,03,6.50
2013,04,25,07,04,6.50
2013,04,25,07,05,6.50
2013,04,25,07,06,6.50
2013,04,25,07,07,6.50
2013,04,25,07,08,6.50
2013,04,25,07,09,6.60
2013,04,25,07,10,6.60
2013,04,25,07,11,6.60
2013,04,25,07,12,6.60
2013,04,25,07,13,6.60
2013,04,25,07,14,6.60
2013,04,25,07,15,6.70
2013,04,25,07,16,6.70
2013,04,25,07,17,6.70
2013,04,25,07,18,6.70
2013,04,25,07,19,6.70
2013,04,25,07,20,6.80
2013,04,25,07,21,6.80
2013,04,25,07,22,6.80
2013,04,25,07,23,6.80
2013,04,25,07,24,6.90
2013,04,25,07,25,6.90
2013,04,25,07,26,6.90
2013,04,25,07,27,6.90
2013,04,25,07,28,6.90
2013,04,25,07,29,6.90
2013,04,25,07,30,6.90
2013,04,25,07,31,6.90
2013,04,25,07,32,6.90
2013,04,25,07,33,6.90
2013,04,25,07,34,6.90
2013,04,25,07,35,6.80
2013,04,25,07,36,6.80
2013,04,25,07,37,6.80
2013,04,25,07,38,6.80
2013,04,25,07,39,6.80
2013,04,25,07,40,6.80
2013,04,25,07,41,6.80
2013,04,25,07,42,6.80
2013,04,25,07,43,6.90
2013,04,25,07,44,6.90
2013,04,25,07,45,6.90
2013,04,25,07,46,6.90
2013,04,25,07,47,6.90
2013,04,25,07,48,6.90
2013,04,25,07,49,6.90
2013,04,25,07,50,6.90
2013,04,25,07,51,7.00
2013,04,25,07,52,7.00
2013,04,25,07,53,7.00
2013,04,25,07,54,7.10
2013,04,25,07,55,7.10
2013,04,25,07,56,7.10
2013,04,25,07,57,7.20
2013,04,25,07,58,7.20
2013,04,25,07,59,7.20
2013,04,25,08,00,7.30
2013,04,25,08,01,7.40
2013,04,25,08,02,7.40
2013,04,25,08,03,7.50
2013,04,25,08,04,7.50
2013,04,25,08,05,7.60
2013,04,25,08,06,7.60
2013,04,25,08,07,7.70
2013,04,25,08,08,7.70
2013,04,25,08,09,7.70
2013,04,25,08,10,7.80
2013,04,25,08,11,7.80
2013,04,25,08,12,7.90
2013,04,25,08,13,7.90
2013,04,25,08,14,8.00
2013,04,25,08,15,8.10
2013,04,25,08,16,8.10
2013,04,25,08,17,8.20
2013,04,25,08,18,8.20
2013,04,25,08,19,8.30
2013,04,25,08,20,8.30
2013,04,25,08,21,8.40
2013,04,25,08,22,8.40
2013,04,25,08,23,8.50
2013,04,25,08,24,8.50
2013,04,25,08,25,8.60
2013,04,25,08,26,8.70
2013,04,25,08,27,8.70
2013,04,25,08,28,8.70
2013,04,25,08,29,8.80
2013,04,25,08,30,8.80
2013,04,25,08,31,8.80
2013,04,25,08,32,8.80
2013,04,25,08,33,8.80
2013,04,25,08,34,8.90
2013,04,25,08,35,8.90
2013,04,25,08,36,8.90
2013,04,25,08,37,8.90
2013,04,25,08,38,9.00
2013,04,25,08,39,9.00
2013,04,25,08,40,9.00
2013,04,25,08,41,9.00
2013,04,25,08,42,9.10
2013,04,25,08,43,9.10
2013,04,25,08,44,9.10
2013,04,25,08,45,9.10
2013,04,25,08,46,9.20
2013,04,25,08,47,9.20
2013,04,25,08,48,9.20
2013,04,25,08,49,9.20
2013,04,25,08,50,9.20
2013,04,25,08,51,9.30
2013,04,25,08,52,9.30
2013,04,25,08,53,9.30
2013,04,25,08,54,9.40
2013,04,25,08,55,9.40
2013,04,25,08,56,9.40
2013,04,25,08,57,9.50
2013,04,25,08,58,9.50
2013,04,25,08,59,9.60
2013,04,25,09,00,9.60
2013,04,25,09,01,9.60
2013,04,25,09,02,9.70
2013,04,25,09,03,9.70
2013,04,25,09,04,9.70
2013,04,25,09,05,9.80
2013,04,25,09,06,9.80
2013,04,25,09,07,9.90
2013,04,25,09,08,9.90
2013,04,25,09,09,9.90
2013,04,25,09,10,10.00
2013,04,25,09,11,10.00
2013,04,25,09,12,10.00
2013,04,25,09,13,10.10
2013,04,25,09,14,10.10
2013,04,25,09,15,10.10
2013,04,25,09,16,10.20
2013,04,25,09,17,10.20
2013,04,25,09,18,10.20
2013,04,25,09,19,10.30
2013,04,25,09,20,10.30
2013,04,25,09,21,10.40
2013,04,25,09,22,10.40
2013,04,25,09,23,10.50
2013,04,25,09,24,10.60
2013,04,25,09,25,10.60
2013,04,25,09,26,10.70
2013,04,25,09,27,10.70
2013,04,25,09,28,10.80
2013,04,25,09,29,10.80
2013,04,25,09,30,10.90
2013,04,25,09,31,10.90
2013,04,25,09,32,11.00
2013,04,25,09,33,11.10
2013,04,25,09,34,11.10
2013,04,25,09,35,11.10
2013,04,25,09,36,11.20
2013,04,25,09,37,11.20
2013,04,25,09,38,11.20
2013,04,25,09,39,11.30
2013,04,25,09,40,11.30
2013,04,25,09,41,11.40
2013,04,25,09,42,11.40
2013,04,25,09,43,11.50
2013,04,25,09,44,11.50
2013,04,25,09,45,11.60
2013,04,25,09,46,11.60
2013,04,25,09,47,11.70
2013,04,25,09,48,11.70
2013,04,25,09,49,11.80
2013,04,25,09,50,11.80
2013,04,25,09,51,11.90
2013,04,25,09,52,11.90
2013,04,25,09,53,12.00
2013,04,25,09,54,12.00
2013,04,25,09,55,12.10
2013,04,25,09,56,12.10
2013,04,25,09,57,12.20
2013,04,25,09,58,12.20
2013,04,25,09,59,12.20
2013,04,25,10,00,12.20
2013,04,25,10,01,12.20
2013,04,25,10,02,12.20
2013,04,25,10,03,12.20
2013,04,25,10,04,12.20
2013,04,25,10,05,12.30
2013,04,25,10,06,12.30
2013,04,25,10,07,12.30
2013,04,25,10,08,12.30
2013,04,25,10,09,12.40
2013,04,25,10,10,12.40
2013,04,25,10,11,12.50
2013,04,25,10,12,12.50
2013,04,25,10,13,12.60
2013,04,25,10,14,12.70
2013,04,25,10,15,12.80
2013,04,25,10,16,12.90
2013,04,25,10,17,13.00
2013,04,25,10,18,13.10
2013,04,25,10,19,13.10
2013,04,25,10,20,13.10
2013,04,25,10,21,13.20
2013,04,25,10,22,13.20
2013,04,25,10,23,13.20
2013,04,25,10,24,13.20
2013,04,25,10,25,13.20
2013,04,25,10,26,13.20
2013,04,25,10,27,13.20
2013,04,25,10,28,13.20
2013,04,25,10,29,13.20
2013,04,25,10,30,13.20
2013,04,25,10,31,13.20
2013,04,25,10,32,13.20
2013,04,25,10,33,13.20
2013,04,25,10,34,13.20
2013,04,25,10,35,13.30
2013,04,25,10,36,13.30
2013,04,25,10,37,13.30
2013,04,25,10,38,13.30
2013,04,25,10,39,13.30
2013,04,25,10,40,13.30
2013,04,25,10,41,13.30
2013,04,25,10,42,13.30
2013,04,25,10,43,13.30
2013,04,25,10,44,13.30
2013,04,25,10,45,13.30
2013,04,25,10,46,13.30
2013,04,25,10,47,13.40
2013,04,25,10,48,13.40
2013,04,25,10,49,13.40
2013,04,25,10,50,13.40
2013,04,25,10,51,13.40
2013,04,25,10,52,13.30
2013,04,25,10,53,13.30
2013,04,25,10,54,13.20
2013,04,25,10,55,13.20
2013,04,25,10,56,13.20
2013,04,25,10,57,13.20
2013,04,25,10,58,13.20
2013,04,25,10,59,13.20
2013,04,25,11,00,13.10
2013,04,25,11,01,13.10
2013,04,25,11,02,13.20
2013,04,25,11,03,13.30
2013,04,25,11,04,13.40
2013,04,25,11,05,13.40
2013,04,25,11,06,13.50
2013,04,25,11,07,13.50
2013,04,25,11,08,13.60
2013,04,25,11,09,13.60
2013,04,25,11,10,13.60
2013,04,25,11,11,13.60
2013,04,25,11,12,13.60
2013,04,25,11,13,13.70
2013,04,25,11,14,13.70
2013,04,25,11,15,13.80
2013,04,25,11,16,13.80
2013,04,25,11,17,13.80
2013,04,25,11,18,13.80
2013,04,25,11,19,13.80
2013,04,25,11,20,13.90
2013,04,25,11,21,13.90
2013,04,25,11,22,14.00
2013,04,25,11,23,14.00
2013,04,25,11,24,14.10
2013,04,25,11,25,14.20
2013,04,25,11,26,14.20
2013,04,25,11,27,14.30
2013,04,25,11,28,14.30
2013,04,25,11,29,14.30
2013,04,25,11,30,14.30
2013,04,25,11,31,14.30
2013,04,25,11,32,14.30
2013,04,25,11,33,14.30
2013,04,25,11,34,14.40
2013,04,25,11,35,14.40
2013,04,25,11,36,14.40
2013,04,25,11,37,14.50
2013,04,25,11,38,14.60
2013,04,25,11,39,14.60
2013,04,25,11,40,14.70
2013,04,25,11,41,14.70
2013,04,25,11,42,14.70
2013,04,25,11,43,14.70
2013,04,25,11,44,14.70
2013,04,25,11,45,14.70
2013,04,25,11,46,14.70
2013,04,25,11,47,14.70
2013,04,25,11,48,14.80
2013,04,25,11,49,14.80
2013,04,25,11,50,14.90
2013,04,25,11,51,14.90
2013,04,25,11,52,14.90
2013,04,25,11,53,14.90
2013,04,25,11,54,14.90
2013,04,25,11,55,14.80
2013,04,25,11,56,14.80
2013,04,25,11,57,14.80
2013,04,25,11,58,14.80
2013,04,25,11,59,14.70
2013,04,25,12,00,14.70
2013,04,25,12,01,14.70
2013,04,25,12,02,14.60
2013,04,25,12,03,14.60
2013,04,25,12,04,14.70
2013,04,25,12,05,14.70
2013,04,25,12,06,14.70
2013,04,25,12,07,14.70
2013,04,25,12,08,14.80
2013,04,25,12,09,14.90
2013,04,25,12,10,15.00
2013,04,25,12,11,15.10
2013,04,25,12,12,15.20
2013,04,25,12,13,15.20
2013,04,25,12,14,15.30
2013,04,25,12,15,15.30
2013,04,25,12,16,15.30
2013,04,25,12,17,15.30
2013,04,25,12,18,15.40
2013,04,25,12,19,15.50
2013,04,25,12,20,15.50
2013,04,25,12,21,15.60
2013,04,25,12,22,15.60
2013,04,25,12,23,15.60
2013,04,25,12,24,15.60
2013,04,25,12,25,15.60
2013,04,25,12,26,15.60
2013,04,25,12,27,15.60
2013,04,25,12,28,15.60
2013,04,25,12,29,15.60
2013,04,25,12,30,15.50
2013,04,25,12,31,15.40
2013,04,25,12,32,15.40
2013,04,25,12,33,15.40
2013,04,25,12,34,15.40
2013,04,25,12,35,15.30
2013,04,25,12,36,15.30
2013,04,25,12,37,15.30
2013,04,25,12,38,15.30
2013,04,25,12,39,15.30
2013,04,25,12,40,15.20
2013,04,25,12,41,15.20
2013,04,25,12,42,15.20
2013,04,25,12,43,15.10
2013,04,25,12,44,15.20
2013,04,25,12,45,15.20
2013,04,25,12,46,15.20
2013,04,25,12,47,15.20
2013,04,25,12,48,15.20
2013,04,25,12,49,15.20
2013,04,25,12,50,15.20
2013,04,25,12,51,15.10
2013,04,25,12,52,15.10
2013,04,25,12,53,15.10
2013,04,25,12,54,15.10
2013,04,25,12,55,15.10
2013,04,25,12,56,15.20
2013,04,25,12,57,15.20
2013,04,25,12,58,15.20
2013,04,25,12,59,15.20
2013,04,25,13,00,15.20
2013,04,25,13,01,15.30
2013,04,25,13,02,15.30
2013,04,25,13,03,15.30
2013,04,25,13,04,15.30
2013,04,25,13,05,15.40
2013,04,25,13,06,15.50
2013,04,25,13,07,15.60
2013,04,25,13,08,15.60
2013,04,25,13,09,15.60
2013,04,25,13,10,15.60
2013,04,25,13,11,15.60
2013,04,25,13,12,15.60
2013,04,25,13,13,15.60
2013,04,25,13,14,15.50
2013,04,25,13,15,15.40
2013,04,25,13,16,15.40
2013,04,25,13,17,15.40
2013,04,25,13,18,15.40
2013,04,25,13,19,15.40
2013,04,25,13,20,15.40
2013,04,25,13,21,15.40
2013,04,25,13,22,15.40
2013,04,25,13,23,15.40
2013,04,25,13,24,15.50
2013,04,25,13,25,15.50
2013,04,25,13,26,15.50
2013,04,25,13,27,15.50
2013,04,25,13,28,15.50
2013,04,25,13,29,15.40
2013,04,25,13,30,15.40
2013,04,25,13,31,15.40
2013,04,25,13,32,15.50
2013,04,25,13,33,15.50
2013,04,25,13,34,15.50
2013,04,25,13,35,15.50
2013,04,25,13,36,15.40
2013,04,25,13,37,15.50
2013,04,25,13,38,15.40
2013,04,25,13,39,15.40
2013,04,25,13,40,15.30
2013,04,25,13,41,15.40
2013,04,25,13,42,15.40
2013,04,25,13,43,15.40
2013,04,25,13,44,15.50
2013,04,25,13,45,15.50
2013,04,25,13,46,15.60
2013,04,25,13,47,15.60
2013,04,25,13,48,15.70
2013,04,25,13,49,15.60
2013,04,25,13,50,15.50
2013,04,25,13,51,15.40
2013,04,25,13,52,15.30
2013,04,25,13,53,15.20
2013,04,25,13,54,15.20
2013,04,25,13,55,15.30
2013,04,25,13,56,15.30
2013,04,25,13,57,15.40
2013,04,25,13,58,15.40
2013,04,25,13,59,15.50
2013,04,25,14,00,15.50
2013,04,25,14,01,15.50
2013,04,25,14,02,15.50
2013,04,25,14,03,15.60
2013,04,25,14,04,15.60
2013,04,25,14,05,15.60
2013,04,25,14,06,15.60
2013,04,25,14,07,15.60
2013,04,25,14,08,15.70
2013,04,25,14,09,15.70
2013,04,25,14,10,15.70
2013,04,25,14,11,15.70
2013,04,25,14,12,15.80
2013,04,25,14,13,15.80
2013,04,25,14,14,15.80
2013,04,25,14,15,15.80
2013,04,25,14,16,15.80
2013,04,25,14,17,15.90
2013,04,25,14,18,15.90
2013,04,25,14,19,15.90
2013,04,25,14,20,16.00
2013,04,25,14,21,16.10
2013,04,25,14,22,16.10
2013,04,25,14,23,16.20
2013,04,25,14,24,16.10
2013,04,25,14,25,16.00
2013,04,25,14,26,16.00
2013,04,25,14,27,16.00
2013,04,25,14,28,16.10
2013,04,25,14,29,16.20
2013,04,25,14,30,16.20
2013,04,25,14,31,16.20
2013,04,25,14,32,16.20
2013,04,25,14,33,16.20
2013,04,25,14,34,16.20
2013,04,25,14,35,16.10
2013,04,25,14,36,16.10
2013,04,25,14,37,16.10
2013,04,25,14,38,16.10
2013,04,25,14,39,16.10
2013,04,25,14,40,16.10
2013,04,25,14,41,16.10
2013,04,25,14,42,16.10
2013,04,25,14,43,16.20
2013,04,25,14,44,16.20
2013,04,25,14,45,16.30
2013,04,25,14,46,16.30
2013,04,25,14,47,16.20
2013,04,25,14,48,16.20
2013,04,25,14,49,16.10
2013,04,25,14,50,16.10
2013,04,25,14,51,16.10
2013,04,25,14,52,16.00
2013,04,25,14,53,16.00
2013,04,25,14,54,16.00
2013,04,25,14,55,15.90
2013,04,25,14,56,15.90
2013,04,25,14,57,15.90
2013,04,25,14,58,15.90
2013,04,25,14,59,15.90
2013,04,25,15,00,15.90
2013,04,25,15,01,15.90
2013,04,25,15,02,15.90
2013,04,25,15,03,16.00
2013,04,25,15,04,16.00
2013,04,25,15,05,16.10
2013,04,25,15,06,16.10
2013,04,25,15,07,16.00
2013,04,25,15,08,15.90
2013,04,25,15,09,15.80
2013,04,25,15,10,15.80
2013,04,25,15,11,15.70
2013,04,25,15,12,15.70
2013,04,25,15,13,15.70
2013,04,25,15,14,15.70
2013,04,25,15,15,15.60
2013,04,25,15,16,15.60
2013,04,25,15,17,15.50
2013,04,25,15,18,15.50
2013,04,25,15,19,15.40
2013,04,25,15,20,15.40
2013,04,25,15,21,15.40
2013,04,25,15,22,15.50
2013,04,25,15,23,15.50
2013,04,25,15,24,15.40
2013,04,25,15,25,15.40
2013,04,25,15,26,15.40
2013,04,25,15,27,15.40
2013,04,25,15,28,15.40
2013,04,25,15,29,15.40
2013,04,25,15,30,15.50
2013,04,25,15,31,15.50
2013,04,25,15,32,15.60
2013,04,25,15,33,15.60
2013,04,25,15,34,15.60
2013,04,25,15,35,15.70
2013,04,25,15,36,15.70
2013,04,25,15,37,15.70
2013,04,25,15,38,15.70
2013,04,25,15,39,15.70
2013,04,25,15,40,15.60
2013,04,25,15,41,15.60
2013,04,25,15,42,15.50
2013,04,25,15,43,15.50
2013,04,25,15,44,15.40
2013,04,25,15,45,15.40
2013,04,25,15,46,15.40
2013,04,25,15,47,15.40
2013,04,25,15,48,15.50
2013,04,25,15,49,15.50
2013,04,25,15,50,15.60
2013,04,25,15,51,15.50
2013,04,25,15,52,15.50
2013,04,25,15,53,15.50
2013,04,25,15,54,15.50
2013,04,25,15,55,15.50
2013,04,25,15,56,15.50
2013,04,25,15,57,15.50
2013,04,25,15,58,15.50
2013,04,25,15,59,15.50
2013,04,25,16,00,15.40
2013,04,25,16,01,15.40
2013,04,25,16,02,15.40
2013,04,25,16,03,15.40
2013,04,25,16,04,15.40
2013,04,25,16,05,15.40
2013,04,25,16,06,15.30
2013,04,25,16,07,15.30
2013,04,25,16,08,15.20
2013,04,25,16,09,15.10
2013,04,25,16,10,15.10
2013,04,25,16,11,15.10
2013,04,25,16,12,15.10
2013,04,25,16,13,15.10
2013,04,25,16,14,15.00
2013,04,25,16,15,15.00
2013,04,25,16,16,14.90
2013,04,25,16,17,14.90
2013,04,25,16,18,14.90
2013,04,25,16,19,14.80
2013,04,25,16,20,14.80
2013,04,25,16,21,14.80
2013,04,25,16,22,14.90
2013,04,25,16,23,14.90
2013,04,25,16,24,15.00
2013,04,25,16,25,15.00
2013,04,25,16,26,14.90
2013,04,25,16,27,14.90
2013,04,25,16,28,14.90
2013,04,25,16,29,14.90
2013,04,25,16,30,14.90
2013,04,25,16,31,14.90
2013,04,25,16,32,14.80
2013,04,25,16,33,14.80
2013,04,25,16,34,14.80
2013,04,25,16,35,14.80
2013,04,25,16,36,14.70
2013,04,25,16,37,14.70
2013,04,25,16,38,14.70
2013,04,25,16,39,14.70
2013,04,25,16,40,14.70
2013,04,25,16,41,14.70
2013,04,25,16,42,14.70
2013,04,25,16,43,14.80
2013,04,25,16,44,14.80
2013,04,25,16,45,14.80
2013,04,25,16,46,14.70
2013,04,25,16,47,14.60
2013,04,25,16,48,14.60
2013,04,25,16,49,14.60
2013,04,25,16,50,14.60
2013,04,25,16,51,14.60
2013,04,25,16,52,14.70
2013,04,25,16,53,14.60
2013,04,25,16,54,14.60
2013,04,25,16,55,14.60
2013,04,25,16,56,14.60
2013,04,25,16,57,14.50
2013,04,25,16,58,14.50
2013,04,25,16,59,14.40
2013,04,25,17,00,14.40
2013,04,25,17,01,14.30
2013,04,25,17,02,14.20
2013,04,25,17,03,14.20
2013,04,25,17,04,14.10
2013,04,25,17,05,14.10
2013,04,25,17,06,14.10
2013,04,25,17,07,14.10
2013,04,25,17,08,14.10
2013,04,25,17,09,14.10
2013,04,25,17,10,14.10
2013,04,25,17,11,14.10
2013,04,25,17,12,14.10
2013,04,25,17,13,14.10
2013,04,25,17,14,14.10
2013,04,25,17,15,14.10
2013,04,25,17,16,14.10
2013,04,25,17,17,14.20
2013,04,25,17,18,14.20
2013,04,25,17,19,14.20
2013,04,25,17,20,14.20
2013,04,25,17,21,14.20
2013,04,25,17,22,14.20
2013,04,25,17,23,14.20
2013,04,25,17,24,14.10
2013,04,25,17,25,14.10
2013,04,25,17,26,14.10
2013,04,25,17,27,14.00
2013,04,25,17,28,14.00
2013,04,25,17,29,14.00
2013,04,25,17,30,14.10
2013,04,25,17,31,14.10
2013,04,25,17,32,14.00
2013,04,25,17,33,14.00